Boone, NC

3:15 AM EST on December 17, 2017 (GMT -0500)
Boone

Weather History for KTNB - September, 2013

Change the Weather History Date:

Wednesday, September 18, 2013

  Actual Average (KGEV) Record (KGEV)
Temperature  
Mean Temperature 56 °F -  
Max Temperature 63 °F 73 °F 83 °F (1970)
Min Temperature 49 °F 50 °F 35 °F (1990)
Degree Days  
Heating Degree Days 9    
Growing Degree Days 6 (Base 50)    
Moisture  
Dew Point 53 °F    
Average Humidity 92    
Maximum Humidity 100    
Minimum Humidity 69    
Precipitation  
Precipitation 0.00 in - - ()
Sea Level Pressure  
Sea Level Pressure 30.30 in    
Wind  
Wind Speed 1 mph (ESE)    
Max Wind Speed 7 mph    
Max Gust Speed -    
Visibility 9 miles    
Events Rain    
Averages and records for this station are not official NWS values.
T = Trace of Precipitation, MM = Missing Value Source: NWS Daily Summary

Daily Weather History Graph

Daily Weather History Graph

Search for Another Location

Airport or City:

Trip Planner

Search our weather history database for the weather conditions in past years. The results will help you decide how hot, cold, wet, or windy it might be!

Date:

Astronomy

Sep. 18, 2013 Rise Set
Actual Time 7:11 AM EDT 7:29 PM EDT
Civil Twilight 6:45 AM EDT 7:54 PM EDT
Nautical Twilight 6:15 AM EDT 8:24 PM EDT
Astronomical Twilight 5:45 AM EDT 8:55 PM EDT
Moon 6:52 PM EDT (9/18) 6:13 AM EDT (9/18)
Length of Visible Light 13h 08m
Length of Day
12h 17m
Waxing Gibbous, 99% of the Moon is Illuminated
Sep 18
Waxing Gibbous
Sep 19
Full
Sep 26
Last Quarter
Oct 4
New
Oct 11
First Quarter

Hourly Weather History & Observations

Time (EDT) Temp. Dew Point Humidity Pressure Visibility Wind Dir Wind Speed Gust Speed Precip Events Conditions
12:15 AM 54.5 °F 52.2 °F 92% 30.36 in 10.0 mi Calm Calm - N/A   Scattered Clouds
12:35 AM 54.5 °F 52.0 °F 91% 30.35 in 10.0 mi SE 3.5 mph - N/A   Scattered Clouds
12:55 AM 54.5 °F 51.8 °F 91% 30.35 in 10.0 mi Calm Calm - N/A   Clear
1:15 AM 53.8 °F 52.0 °F 94% 30.34 in 10.0 mi Calm Calm - N/A   Scattered Clouds
1:35 AM 54.0 °F 51.3 °F 91% 30.34 in 10.0 mi ESE 4.6 mph - N/A   Scattered Clouds
1:55 AM 53.6 °F 51.1 °F 91% 30.35 in 10.0 mi Calm Calm - N/A   Scattered Clouds
2:15 AM 53.4 °F 50.9 °F 91% 30.34 in 10.0 mi Calm Calm - N/A   Clear
2:35 AM 52.9 °F 50.5 °F 92% 30.35 in 10.0 mi SE 3.5 mph - N/A   Clear
2:55 AM 52.7 °F 50.4 °F 92% 30.34 in 10.0 mi Calm Calm - N/A   Clear
3:15 AM 52.2 °F 50.4 °F 94% 30.34 in 10.0 mi Calm Calm - N/A   Scattered Clouds
3:35 AM 51.8 °F 50.2 °F 94% 30.33 in 10.0 mi Calm Calm - N/A   Scattered Clouds
3:55 AM 51.4 °F 49.5 °F 93% 30.33 in 10.0 mi ESE 3.5 mph - N/A   Scattered Clouds
4:15 AM 51.1 °F 49.3 °F 94% 30.33 in 10.0 mi Calm Calm - N/A   Clear
4:35 AM 50.9 °F 49.5 °F 95% 30.32 in 10.0 mi Calm Calm - N/A   Scattered Clouds
4:55 AM 50.7 °F 49.3 °F 95% 30.32 in 10.0 mi Calm Calm - N/A   Clear
5:15 AM 50.4 °F 49.3 °F 96% 30.32 in 10.0 mi Calm Calm - N/A   Clear
5:35 AM 50.2 °F 49.5 °F 97% 30.32 in 10.0 mi Calm Calm - N/A   Clear
5:55 AM 49.8 °F 49.1 °F 97% 30.32 in 10.0 mi Calm Calm - N/A   Clear
6:15 AM 50.0 °F 49.5 °F 98% 30.32 in 10.0 mi Calm Calm - N/A   Clear
6:35 AM 50.0 °F 49.3 °F 97% 30.32 in 10.0 mi Calm Calm - N/A   Scattered Clouds
6:55 AM 50.0 °F 49.1 °F 97% 30.32 in 10.0 mi Calm Calm - N/A   Scattered Clouds
7:15 AM 50.0 °F 49.1 °F 97% 30.33 in 10.0 mi Calm Calm - N/A   Scattered Clouds
7:35 AM 50.0 °F 49.1 °F 97% 30.33 in 10.0 mi East 3.5 mph - N/A   Mostly Cloudy
7:55 AM 50.4 °F 49.5 °F 97% 30.33 in 10.0 mi East 3.5 mph - N/A   Mostly Cloudy
8:15 AM 50.5 °F 49.5 °F 96% 30.34 in 10.0 mi Calm Calm - N/A   Scattered Clouds
8:35 AM 50.7 °F 49.5 °F 95% 30.33 in 10.0 mi Calm Calm - N/A   Scattered Clouds
8:55 AM 51.6 °F 50.2 °F 95% 30.34 in 10.0 mi Calm Calm - N/A   Mostly Cloudy
9:15 AM 51.8 °F 50.2 °F 94% 30.34 in 10.0 mi Calm Calm - N/A   Overcast
9:35 AM 52.9 °F 51.1 °F 94% 30.34 in 10.0 mi SE 4.6 mph - N/A   Overcast
9:55 AM 53.4 °F 50.9 °F 91% 30.35 in 10.0 mi SE 3.5 mph - N/A   Overcast
10:15 AM 54.3 °F 51.1 °F 89% 30.35 in 10.0 mi Calm Calm - N/A   Overcast
10:35 AM 54.5 °F 51.6 °F 90% 30.34 in 10.0 mi SSE 3.5 mph - N/A   Overcast
10:55 AM 56.1 °F 52.9 °F 89% 30.34 in 10.0 mi Calm Calm - N/A   Mostly Cloudy
11:15 AM 56.8 °F 52.3 °F 85% 30.34 in 10.0 mi SSE 5.8 mph - N/A   Mostly Cloudy
11:35 AM 58.6 °F 53.1 °F 82% 30.33 in 10.0 mi SE 5.8 mph - N/A   Scattered Clouds
11:55 AM 59.9 °F 51.4 °F 74% 30.32 in 10.0 mi SE 3.5 mph - N/A   Clear
12:15 PM 60.8 °F 51.1 °F 70% 30.32 in 10.0 mi ESE 3.5 mph - N/A   Clear
12:35 PM 61.2 °F 52.5 °F 73% 30.31 in 10.0 mi East 6.9 mph - N/A   Clear
12:55 PM 62.2 °F 53.1 °F 72% 30.31 in 10.0 mi East 4.6 mph - N/A   Clear
1:15 PM 63.3 °F 53.6 °F 71% 30.30 in 10.0 mi SE 6.9 mph - N/A   Clear
1:35 PM 63.9 °F 53.6 °F 69% 30.30 in 10.0 mi ESE 5.8 mph - N/A   Clear
1:55 PM 61.0 °F 53.2 °F 76% 30.29 in 10.0 mi East 5.8 mph - N/A   Clear
2:15 PM 61.5 °F 53.8 °F 76% 30.29 in 10.0 mi ESE 3.5 mph - N/A   Clear
2:35 PM 59.5 °F 53.1 °F 79% 30.29 in 10.0 mi SE 4.6 mph - N/A   Clear
2:55 PM 58.8 °F 53.2 °F 82% 30.29 in 10.0 mi Calm Calm - N/A   Clear
3:15 PM 58.3 °F 53.4 °F 84% 30.28 in 10.0 mi Calm Calm - N/A   Clear
3:35 PM 57.9 °F 54.0 °F 87% 30.28 in 10.0 mi East 3.5 mph - N/A   Clear
3:55 PM 58.1 °F 55.0 °F 90% 30.27 in 10.0 mi Calm Calm - N/A   Clear
4:15 PM 57.6 °F 55.8 °F 94% 30.27 in 10.0 mi Calm Calm - N/A   Clear
4:35 PM 59.0 °F 56.1 °F 90% 30.26 in 10.0 mi Calm Calm - N/A   Clear
4:55 PM 58.1 °F 55.8 °F 92% 30.26 in 10.0 mi Calm Calm - N/A   Clear
5:15 PM 58.1 °F 56.3 °F 94% 30.26 in 10.0 mi Calm Calm - N/A   Clear
5:35 PM 58.5 °F 57.0 °F 95% 30.26 in 10.0 mi Calm Calm - N/A   Clear
5:55 PM 58.3 °F 57.0 °F 96% 30.26 in 10.0 mi Calm Calm - N/A   Clear
6:15 PM 58.1 °F 56.8 °F 96% 30.26 in 10.0 mi Calm Calm - N/A   Scattered Clouds
6:35 PM 57.6 °F 56.5 °F 96% 30.25 in 10.0 mi ESE 3.5 mph - N/A   Scattered Clouds
6:55 PM 56.5 °F 55.9 °F 98% 30.25 in 10.0 mi Calm Calm - N/A   Scattered Clouds
7:15 PM 56.3 °F 55.9 °F 99% 30.25 in 10.0 mi ESE 5.8 mph - N/A   Clear
7:35 PM 55.9 °F 55.8 °F 99% 30.25 in 7.0 mi Calm Calm - N/A   Clear
7:55 PM 55.6 °F 55.6 °F 100% 30.25 in 5.0 mi Calm Calm - N/A Rain Light Rain
8:15 PM 55.8 °F 55.8 °F 100% 30.26 in 4.0 mi Calm Calm - N/A   Light Drizzle
8:35 PM 55.6 °F 55.6 °F 100% 30.26 in 4.0 mi Calm Calm - N/A Rain Light Rain
8:55 PM 55.8 °F 55.8 °F 100% 30.27 in 4.0 mi Calm Calm - N/A   Drizzle
9:15 PM 55.8 °F 55.8 °F 100% 30.27 in 3.0 mi Calm Calm - N/A   Light Drizzle
9:35 PM 55.8 °F 55.8 °F 100% 30.27 in 5.0 mi Calm Calm - N/A   Scattered Clouds
9:55 PM 56.1 °F 56.1 °F 100% 30.28 in 5.0 mi Calm Calm - N/A   Mostly Cloudy
10:15 PM 56.3 °F 56.3 °F 100% 30.27 in 5.0 mi Calm Calm - N/A   Scattered Clouds
10:35 PM 56.3 °F 56.3 °F 100% 30.27 in 5.0 mi Calm Calm - N/A   Scattered Clouds
10:55 PM 57.2 °F 57.2 °F 100% 30.27 in 7.0 mi Calm Calm - N/A   Scattered Clouds
11:15 PM 57.0 °F 57.0 °F 100% 30.27 in 5.0 mi Calm Calm - N/A   Scattered Clouds
11:35 PM 58.3 °F 58.1 °F 99% 30.27 in 10.0 mi Calm Calm - N/A   Clear
11:55 PM 57.4 °F 57.4 °F 100% 30.27 in 5.0 mi Calm Calm - N/A   Clear